Benson, MN

10:46 AM CDT on May 26, 2017 (GMT -0500)
Benson Municipal

Weather History for KBBB - May, 2013

Change the Weather History Date:

Thursday, May 16, 2013

  Actual Average Record
Temperature  
Mean Temperature 60 °F -  
Max Temperature 82 °F 72 °F 95 °F (1987)
Min Temperature 39 °F 47 °F 26 °F (2014)
Degree Days  
Heating Degree Days 4    
Growing Degree Days 10 (Base 50)    
Moisture  
Dew Point 39 °F    
Average Humidity 42    
Maximum Humidity 93    
Minimum Humidity 20    
Precipitation  
Precipitation 0.00 in - - ()
Sea Level Pressure  
Sea Level Pressure 29.87 in    
Wind  
Wind Speed 6 mph (SE)    
Max Wind Speed 14 mph    
Max Gust Speed 20 mph    
Visibility 10 miles    
Events      
Averages and records for this station are not official NWS values.
T = Trace of Precipitation, MM = Missing Value Source: NWS Daily Summary

Daily Weather History Graph

Daily Weather History Graph

Search for Another Location

Airport or City:

Trip Planner

Search our weather history database for the weather conditions in past years. The results will help you decide how hot, cold, wet, or windy it might be!

Date:

Astronomy

May. 16, 2013 Rise Set
Actual Time 5:51 AM CDT 8:47 PM CDT
Civil Twilight 5:16 AM CDT 9:22 PM CDT
Nautical Twilight 4:32 AM CDT 10:06 PM CDT
Astronomical Twilight 3:39 AM CDT 10:59 PM CDT
Moon 11:30 AM CDT (5/16) 1:04 AM CDT (5/16)
Length of Visible Light 16h 05m
Length of Day
14h 56m
Waxing Crescent, 36% of the Moon is Illuminated
May 16
Waxing Crescent
May 17
First Quarter
May 24
Full
May 31
Last Quarter
Jun 8
New

Hourly Weather History & Observations

Time (CDT) Temp. Windchill Dew Point Humidity Pressure Visibility Wind Dir Wind Speed Gust Speed Precip Events Conditions
12:12 AM 55.4 °F - 39.2 °F 54% 29.85 in 10.0 mi West 8.1 mph - N/A   Clear
12:32 AM 53.6 °F - 39.2 °F 58% 29.85 in 10.0 mi WNW 5.8 mph - N/A   Clear
12:53 AM 51.8 °F - 39.2 °F 62% 29.86 in 10.0 mi West 4.6 mph - N/A   Clear
1:12 AM 51.8 °F - 39.2 °F 62% 29.86 in 10.0 mi West 3.5 mph - N/A   Clear
1:32 AM 53.6 °F - 39.2 °F 58% 29.86 in 10.0 mi Calm Calm - N/A   Clear
1:53 AM 50.0 °F - 39.2 °F 66% 29.87 in 10.0 mi Calm Calm - N/A   Clear
2:12 AM 50.0 °F - 39.2 °F 66% 29.87 in 10.0 mi Calm Calm - N/A   Clear
2:32 AM 48.2 °F - 39.2 °F 71% 29.87 in 10.0 mi Calm Calm - N/A   Clear
2:53 AM 46.4 °F - 37.4 °F 71% 29.87 in 10.0 mi Calm Calm - N/A   Clear
3:12 AM 46.4 °F - 39.2 °F 76% 29.87 in 10.0 mi Calm Calm - N/A   Clear
3:33 AM 44.6 °F - 39.2 °F 81% 29.87 in 10.0 mi Calm Calm - N/A   Clear
3:53 AM 44.6 °F 41.4 °F 39.2 °F 81% 29.88 in 10.0 mi NE 5.8 mph - N/A   Clear
4:12 AM 44.6 °F - 39.2 °F 81% 29.88 in 10.0 mi Calm Calm - N/A   Clear
4:33 AM 46.4 °F - 39.2 °F 76% 29.88 in 10.0 mi Calm Calm - N/A   Clear
4:53 AM 42.8 °F - 37.4 °F 81% 29.89 in 10.0 mi Calm Calm - N/A   Clear
5:12 AM 42.8 °F - 37.4 °F 81% 29.89 in 10.0 mi Calm Calm - N/A   Clear
5:33 AM 42.8 °F - 37.4 °F 81% 29.89 in 10.0 mi Calm Calm - N/A   Clear
5:52 AM 39.2 °F 37.0 °F 37.4 °F 93% 29.89 in 10.0 mi North 3.5 mph - N/A   Clear
6:12 AM 41.0 °F - 37.4 °F 87% 29.89 in 10.0 mi Calm Calm - N/A   Clear
6:33 AM 42.8 °F - 37.4 °F 81% 29.89 in 10.0 mi Calm Calm - N/A   Clear
6:52 AM 46.4 °F - 42.8 °F 87% 29.90 in 10.0 mi Calm Calm - N/A   Clear
7:12 AM 50.0 °F - 44.6 °F 82% 29.91 in 10.0 mi Calm Calm - N/A   Clear
7:33 AM 55.4 °F - 44.6 °F 67% 29.91 in 10.0 mi ESE 3.5 mph - N/A   Clear
7:52 AM 57.2 °F - 42.8 °F 59% 29.91 in 10.0 mi East 3.5 mph - N/A   Clear
8:13 AM 60.8 °F - 44.6 °F 55% 29.91 in 10.0 mi ESE 4.6 mph - N/A   Clear
8:33 AM 64.4 °F - 42.8 °F 45% 29.91 in 10.0 mi ESE 9.2 mph - N/A   Clear
8:52 AM 69.8 °F - 41.0 °F 35% 29.91 in 10.0 mi ESE 11.5 mph 17.3 mph N/A   Clear
9:13 AM 71.6 °F - 41.0 °F 33% 29.91 in 10.0 mi ESE 11.5 mph - N/A   Clear
9:33 AM 73.4 °F - 39.2 °F 29% 29.91 in 10.0 mi SE 12.7 mph 17.3 mph N/A   Clear
9:52 AM 75.2 °F - 41.0 °F 29% 29.90 in 10.0 mi SE 10.4 mph - N/A   Clear
10:13 AM 77.0 °F - 39.2 °F 26% 29.90 in 10.0 mi SE 10.4 mph - N/A   Clear
10:33 AM 78.8 °F - 39.2 °F 24% 29.89 in 10.0 mi ESE 12.7 mph - N/A   Clear
10:52 AM 78.8 °F - 39.2 °F 24% 29.89 in 10.0 mi SE 13.8 mph 18.4 mph N/A   Clear
11:13 AM 78.8 °F - 39.2 °F 24% 29.89 in 10.0 mi SE 11.5 mph - N/A   Clear
11:32 AM 78.8 °F - 39.2 °F 24% 29.88 in 10.0 mi SE 9.2 mph 16.1 mph N/A   Clear
11:52 AM 78.8 °F - 37.4 °F 23% 29.88 in 10.0 mi SE 4.6 mph 9.2 mph N/A   Clear
12:13 PM 78.8 °F - 39.2 °F 24% 29.88 in 10.0 mi SSE 6.9 mph - N/A   Clear
12:32 PM 80.6 °F - 39.2 °F 23% 29.88 in 10.0 mi SE 12.7 mph 19.6 mph N/A   Clear
12:52 PM 80.6 °F - 39.2 °F 23% 29.87 in 10.0 mi SE 9.2 mph 19.6 mph N/A   Clear
1:32 PM 80.6 °F - 37.4 °F 21% 29.87 in 10.0 mi SSE 8.1 mph - N/A   Clear
1:53 PM 80.6 °F - 37.4 °F 21% 29.86 in 10.0 mi SSE 10.4 mph - N/A   Clear
2:12 PM 80.6 °F - 35.6 °F 20% 29.85 in 10.0 mi SE 9.2 mph - N/A   Scattered Clouds
2:32 PM 82.4 °F - 37.4 °F 20% 29.85 in 10.0 mi ESE 8.1 mph - N/A   Scattered Clouds
2:53 PM 80.6 °F - 37.4 °F 21% 29.85 in 10.0 mi ESE 4.6 mph 16.1 mph N/A   Clear
3:12 PM 80.6 °F - 35.6 °F 20% 29.85 in 10.0 mi SE 5.8 mph - N/A   Scattered Clouds
3:33 PM 82.4 °F - 37.4 °F 20% 29.85 in 10.0 mi SSE 8.1 mph 18.4 mph N/A   Scattered Clouds
3:53 PM 80.6 °F - 37.4 °F 21% 29.84 in 10.0 mi SE 10.4 mph - N/A   Scattered Clouds
4:12 PM 80.6 °F - 37.4 °F 21% 29.84 in 10.0 mi SE 8.1 mph - N/A   Scattered Clouds
4:33 PM 82.4 °F - 37.4 °F 20% 29.83 in 10.0 mi ESE 9.2 mph - N/A   Scattered Clouds
4:52 PM 82.4 °F - 37.4 °F 20% 29.82 in 10.0 mi SE 11.5 mph - N/A   Clear
5:12 PM 80.6 °F - 37.4 °F 21% 29.82 in 10.0 mi ESE 12.7 mph 18.4 mph N/A   Scattered Clouds
5:33 PM 80.6 °F - 37.4 °F 21% 29.82 in 10.0 mi ESE 12.7 mph 17.3 mph N/A   Mostly Cloudy
5:52 PM 78.8 °F - 39.2 °F 24% 29.82 in 10.0 mi ESE 11.5 mph 18.4 mph N/A   Mostly Cloudy
6:12 PM 78.8 °F - 39.2 °F 24% 29.81 in 10.0 mi ESE 10.4 mph - N/A   Mostly Cloudy
6:33 PM 78.8 °F - 39.2 °F 24% 29.81 in 10.0 mi ESE 12.7 mph 19.6 mph N/A   Scattered Clouds
6:53 PM 78.8 °F - 39.2 °F 24% 29.80 in 10.0 mi ESE 11.5 mph 16.1 mph N/A   Mostly Cloudy
7:12 PM 77.0 °F - 39.2 °F 26% 29.81 in 10.0 mi SE 12.7 mph 17.3 mph N/A   Mostly Cloudy
7:33 PM 77.0 °F - 39.2 °F 26% 29.81 in 10.0 mi ESE 12.7 mph 17.3 mph N/A   Overcast
7:52 PM 75.2 °F - 39.2 °F 27% 29.81 in 10.0 mi ESE 9.2 mph - N/A   Overcast
8:12 PM 75.2 °F - 39.2 °F 27% 29.82 in 10.0 mi SE 10.4 mph - N/A   Overcast
8:33 PM 75.2 °F - 39.2 °F 27% 29.83 in 10.0 mi SE 10.4 mph - N/A   Overcast
8:52 PM 75.2 °F - 39.2 °F 27% 29.84 in 10.0 mi SE 9.2 mph - N/A   Overcast
9:12 PM 73.4 °F - 39.2 °F 29% 29.84 in 10.0 mi SE 10.4 mph 17.3 mph N/A   Overcast
9:33 PM 73.4 °F - 41.0 °F 31% 29.85 in 10.0 mi South 8.1 mph - N/A   Overcast
9:52 PM 71.6 °F - 41.0 °F 33% 29.86 in 10.0 mi SSE 5.8 mph - N/A   Overcast
10:13 PM 73.4 °F - 42.8 °F 33% 29.87 in 10.0 mi South 4.6 mph - N/A   Overcast
10:33 PM 71.6 °F - 39.2 °F 31% 29.87 in 10.0 mi ESE 8.1 mph - N/A   Overcast
10:52 PM 71.6 °F - 35.6 °F 27% 29.88 in 10.0 mi SE 10.4 mph - N/A   Overcast
11:13 PM 69.8 °F - 35.6 °F 28% 29.88 in 10.0 mi ESE 6.9 mph - N/A   Overcast
11:33 PM 69.8 °F - 35.6 °F 28% 29.88 in 10.0 mi ESE 8.1 mph - N/A   Overcast
11:52 PM 69.8 °F - 35.6 °F 28% 29.88 in 10.0 mi SE 5.8 mph - N/A   Overcast